N1ACB Weather Reports


time (UTC)temp
F
wind
direction
speed
knots
gust
knots
rain 1hr
in
rain 24hr
in
rain mn
in
humidity
%
barometer
mb
20260509011503 61 17 0.0 0.0 0.00 0.00 0.00 77 1011.8
20260509011003 61 19 0.0 0.0 0.00 0.00 0.00 77 1011.9
20260509010503 61 19 0.0 0.0 0.00 0.00 0.00 76 1011.8
20260509010004 61 19 0.0 0.0 0.00 0.00 0.00 76 1011.9
20260509005503 61 31 0.0 0.0 0.00 0.00 0.00 77 1011.8
20260509005004 61 32 0.0 0.0 0.00 0.00 0.00 76 1011.8
20260509004004 62 34 0.0 0.0 0.00 0.00 0.00 76 1011.8
20260509003503 62 34 0.0 0.0 0.00 0.00 0.00 76 1011.8
20260509003004 62 34 0.0 0.0 0.00 0.00 0.00 74 1011.9
20260509002504 62 30 0.0 0.0 0.00 0.00 0.00 74 1011.9
20260509002004 63 29 0.0 0.0 0.00 0.00 0.00 73 1011.9
20260509000504 63 30 0.0 0.0 0.00 0.00 0.00 72 1011.8
20260508235504 64 30 0.0 0.0 0.00 0.00 0.00 68 1011.9
20260508234503 64 30 0.0 0.0 0.00 0.00 0.00 67 1011.8
20260508234004 65 30 0.0 0.0 0.00 0.00 0.00 67 1011.7
20260508233504 65 30 0.0 0.0 0.00 0.00 0.00 67 1011.8
20260508233004 65 31 0.0 0.0 0.00 0.00 0.00 65 1011.8
20260508232504 66 34 0.0 0.0 0.00 0.00 0.00 63 1011.9
20260508232004 66 35 0.0 0.0 0.00 0.00 0.00 64 1011.9
20260508231004 66 34 0.0 0.0 0.00 0.00 0.00 61 1011.8
20260508230004 66 36 0.0 0.9 0.00 0.00 0.00 62 1011.9
20260508225503 67 27 0.0 0.0 0.00 0.00 0.00 61 1011.8
20260508225003 67 342 0.0 0.9 0.00 0.00 0.00 62 1011.9
20260508224004 67 353 0.0 0.0 0.00 0.00 0.00 61 1011.8
20260508223504 67 354 0.0 0.0 0.00 0.00 0.00 60 1011.9
20260508223004 68 354 0.0 0.0 0.00 0.00 0.00 60 1011.9
20260508222503 68 349 0.0 0.0 0.00 0.00 0.00 62 1011.8
20260508222004 68 45 0.0 0.0 0.00 0.00 0.00 60 1011.7
20260508221503 68 317 0.0 0.0 0.00 0.00 0.00 60 1011.9
20260508221004 68 317 0.0 0.0 0.00 0.00 0.00 60 1011.8
20260508220504 68 323 0.0 0.0 0.00 0.00 0.00 59 1011.7
20260508220004 68 6 0.0 0.0 0.00 0.00 0.00 61 1011.6
20260508215504 68 6 0.0 0.0 0.00 0.00 0.00 59 1011.7
20260508215003 68 6 0.0 0.0 0.00 0.00 0.00 59 1011.9
20260508214504 68 6 0.0 0.0 0.00 0.00 0.00 59 1011.7
20260508214004 68 6 0.0 0.0 0.00 0.00 0.00 60 1011.6
20260508213504 69 6 0.0 0.0 0.00 0.00 0.00 59 1011.5
20260508213003 69 6 0.0 0.0 0.00 0.00 0.00 59 1011.5
20260508212503 69 6 0.0 0.0 0.00 0.00 0.00 57 1011.7
20260508211004 70 113 0.0 0.0 0.00 0.00 0.00 52 1011.9
20260508210503 70 109 0.0 0.0 0.00 0.00 0.00 51 1011.9
20260508210003 70 206 0.0 0.0 0.00 0.00 0.00 53 1011.7
20260508205503 70 205 0.0 0.0 0.00 0.00 0.00 52 1011.7
20260508205004 70 189 0.0 2.6 0.00 0.00 0.00 53 1011.8
20260508204503 70 184 0.9 2.6 0.00 0.00 0.00 50 1011.7
20260508204004 70 169 0.0 0.0 0.00 0.00 0.00 55 1011.8
20260508203503 70 201 0.9 1.7 0.00 0.00 0.00 50 1011.8
20260508203004 70 188 0.0 1.7 0.00 0.00 0.00 54 1011.8
20260508202503 70 185 0.0 0.0 0.00 0.00 0.00 55 1011.9
20260508202004 71 188 0.0 0.0 0.00 0.00 0.00 53 1012.0
20260508201503 71 188 0.0 0.0 0.00 0.00 0.00 48 1012.0
20260508201004 71 188 0.0 0.0 0.00 0.00 0.00 51 1012.0
20260508200004 70 168 0.0 1.7 0.00 0.00 0.00 49 1012.1
20260508195504 70 344 0.9 2.6 0.00 0.00 0.00 50 1012.2
20260508195003 71 0 0.0 0.0 0.00 0.00 0.00 50 1012.3
20260508194504 71 356 0.0 0.0 0.00 0.00 0.00 50 1012.4
20260508194003 71 291 0.0 0.9 0.00 0.00 0.00 52 1012.5
20260508193504 71 291 0.0 0.9 0.00 0.00 0.00 49 1012.6
20260508193004 71 8 0.0 0.0 0.00 0.00 0.00 48 1012.7
20260508192503 71 0 0.0 0.9 0.00 0.00 0.00 51 1012.7
20260508192004 71 335 0.0 0.0 0.00 0.00 0.00 49 1012.6
20260508191503 71 335 0.0 0.0 0.00 0.00 0.00 45 1012.8
20260508191004 71 65 0.0 0.0 0.00 0.00 0.00 49 1012.9
20260508190503 71 19 0.0 0.0 0.00 0.00 0.00 51 1012.8
20260508185503 71 342 0.0 0.0 0.00 0.00 0.00 52 1012.9
20260508185004 72 258 0.0 0.9 0.00 0.00 0.00 46 1012.8
20260508184004 72 337 0.0 1.7 0.00 0.00 0.00 50 1013.1
20260508183503 71 295 0.0 0.0 0.00 0.00 0.00 46 1013.3
20260508183004 71 187 0.0 1.7 0.00 0.00 0.00 46 1013.4
20260508182503 71 174 0.0 0.0 0.00 0.00 0.00 50 1013.4
20260508182004 71 184 0.0 0.0 0.00 0.00 0.00 51 1013.5
20260508181504 70 337 0.0 0.0 0.00 0.00 0.00 50 1013.5
20260508181004 69 349 0.0 0.0 0.00 0.00 0.00 50 1013.6
20260508180004 68 306 0.0 1.7 0.00 0.00 0.00 54 1013.6
20260508175504 68 13 0.0 0.0 0.00 0.00 0.00 55 1013.7
20260508175004 68 356 0.0 0.0 0.00 0.00 0.00 53 1013.9
20260508174504 68 21 0.0 0.0 0.00 0.00 0.00 55 1013.9
20260508173504 68 2 0.0 0.9 0.00 0.00 0.00 53 1014.1
20260508173004 68 296 0.0 0.9 0.00 0.00 0.00 57 1014.1
20260508172504 67 294 0.0 0.0 0.00 0.00 0.00 56 1014.2
20260508172004 68 236 0.0 0.0 0.00 0.00 0.00 54 1014.3
20260508171504 68 236 0.0 0.0 0.00 0.00 0.00 51 1014.2
20260508171004 68 188 0.0 0.0 0.00 0.00 0.00 54 1014.4
20260508170503 68 176 0.0 0.9 0.00 0.00 0.00 53 1014.4
20260508170003 68 9 0.0 0.0 0.00 0.00 0.00 60 1014.5
20260508165504 67 287 0.0 0.0 0.00 0.00 0.00 57 1014.7
20260508165004 67 189 0.0 2.6 0.00 0.00 0.00 58 1014.8
20260508164504 66 190 0.9 4.3 0.00 0.00 0.00 52 1014.9
20260508164003 66 220 0.0 0.0 0.00 0.00 0.00 56 1015.0
20260508163504 66 81 0.0 0.0 0.00 0.00 0.00 57 1015.0
20260508162003 65 341 0.9 2.6 0.00 0.00 0.00 58 1015.4
20260508161004 66 277 0.0 0.0 0.00 0.00 0.00 60 1015.3
20260508160003 66 329 0.0 0.0 0.00 0.00 0.00 55 1015.3
20260508155504 67 353 0.0 0.0 0.00 0.00 0.00 58 1015.3
20260508155003 66 356 0.0 0.0 0.00 0.00 0.00 58 1015.4
20260508154503 66 346 0.0 1.7 0.00 0.00 0.00 57 1015.6
20260508153004 66 344 0.0 0.9 0.00 0.00 0.00 55 1015.8
20260508152503 67 356 0.0 0.0 0.00 0.00 0.00 56 1015.8
20260508152004 66 0 0.0 0.0 0.00 0.00 0.00 61 1015.9
20260508151004 65 169 0.0 0.0 0.00 0.01 0.00 61 1015.8
20260508150504 65 5 0.0 0.0 0.00 0.01 0.00 62 1015.8
20260508144504 64 347 0.0 0.0 0.00 0.01 0.00 65 1015.5
20260508144003 63 66 0.0 0.0 0.00 0.01 0.00 67 1015.4
20260508143003 62 327 0.0 0.0 0.00 0.01 0.00 68 1015.5
20260508142503 61 10 0.0 0.0 0.00 0.01 0.00 69 1015.5
20260508142004 61 97 0.0 0.0 0.00 0.01 0.00 72 1015.6
20260508141503 60 10 0.0 0.0 0.00 0.01 0.00 74 1015.7
20260508141004 60 16 0.0 0.0 0.00 0.01 0.00 75 1015.8
20260508140504 59 130 0.0 0.0 0.00 0.01 0.00 77 1015.9
20260508140004 59 209 0.0 0.0 0.00 0.01 0.00 81 1016.0
20260508135503 58 195 0.0 0.0 0.00 0.01 0.00 80 1016.0
20260508135004 58 0 0.0 0.0 0.00 0.02 0.00 82 1015.9
20260508134503 57 26 0.0 0.0 0.00 0.02 0.00 84 1016.0
20260508133503 57 9 0.0 0.0 0.00 0.04 0.00 90 1016.0
20260508133004 57 24 0.0 0.0 0.00 0.05 0.00 92 1016.0
20260508132503 56 23 0.0 0.0 0.00 0.06 0.00 94 1016.1
20260508132004 56 35 0.0 0.0 0.00 0.06 0.00 94 1016.1
20260508131504 56 34 0.0 0.0 0.00 0.07 0.00 95 1016.1
20260508131004 55 35 0.0 0.0 0.00 0.08 0.00 96 1016.0
20260508130004 54 24 0.0 0.0 0.00 0.10 0.00 96 1015.8
20260508125503 54 23 0.0 0.0 0.00 0.11 0.00 97 1015.8
20260508125004 54 23 0.0 0.0 0.00 0.12 0.00 98 1015.6
20260508124503 53 24 0.0 0.0 0.00 0.13 0.00 99 1015.6
20260508124004 53 23 0.0 0.0 0.00 0.14 0.00 99 1015.5
20260508123004 53 23 0.0 0.0 0.00 0.16 0.00 100 1015.3
20260508122503 52 23 0.0 0.0 0.00 0.17 0.00 100 1015.3
20260508122004 52 244 0.0 0.0 0.00 0.19 0.00 100 1015.2
20260508121503 52 233 0.0 0.0 0.00 0.20 0.00 100 1015.3
20260508121004 51 280 0.0 0.0 0.00 0.22 0.00 100 1015.2
20260508120504 51 293 0.0 0.0 0.00 0.23 0.00 100 1015.2
20260508120003 51 295 0.0 0.0 0.00 0.24 0.00 100 1015.0
20260508115504 51 295 0.0 0.0 0.00 0.25 0.00 100 1015.0
20260508114503 50 296 0.0 0.0 0.00 0.28 0.00 99 1014.8
20260508114004 50 296 0.0 0.0 0.00 0.30 0.00 99 1014.7
20260508113503 50 296 0.0 0.0 0.00 0.31 0.00 98 1014.7
20260508113004 49 155 0.0 0.0 0.00 0.32 0.00 98 1014.6
20260508112504 49 155 0.0 0.0 0.00 0.34 0.00 98 1014.6
20260508112003 49 156 0.0 0.0 0.00 0.35 0.00 98 1014.4
20260508111504 49 157 0.0 0.0 0.00 0.36 0.00 98 1014.1
20260508111003 49 156 0.0 0.0 0.00 0.36 0.00 98 1014.0
20260508110504 49 156 0.0 0.0 0.00 0.37 0.00 98 1013.9
20260508110004 49 156 0.0 0.0 0.00 0.38 0.00 98 1013.7
20260508105503 49 157 0.0 0.0 0.00 0.38 0.00 98 1013.6
20260508105004 49 156 0.0 0.0 0.00 0.39 0.00 98 1013.6
20260508104504 49 157 0.0 0.0 0.00 0.40 0.00 98 1013.5
20260508103504 49 156 0.0 0.0 0.00 0.42 0.00 97 1013.4
20260508103004 49 157 0.0 0.0 0.00 0.43 0.00 97 1013.4
20260508102503 49 158 0.0 0.0 0.00 0.44 0.00 97 1013.3
20260508102004 49 158 0.0 0.0 0.00 0.44 0.00 97 1013.3
20260508101504 49 158 0.0 0.0 0.00 0.44 0.00 97 1013.2
20260508100504 50 157 0.0 0.0 0.00 0.44 0.00 97 1013.0
20260508100004 50 157 0.0 0.0 0.00 0.44 0.00 97 1012.8
20260508095504 50 157 0.0 0.0 0.00 0.44 0.00 97 1012.8
20260508095004 50 157 0.0 0.0 0.00 0.44 0.00 97 1012.7
20260508094504 50 158 0.0 0.0 0.00 0.44 0.00 97 1012.5
20260508093503 50 158 0.0 0.0 0.00 0.44 0.00 97 1012.5
20260508093004 50 157 0.0 0.0 0.00 0.44 0.00 97 1012.6
20260508092503 50 157 0.0 0.0 0.00 0.44 0.00 97 1012.6
20260508092004 50 157 0.0 0.0 0.00 0.44 0.00 97 1012.5
20260508091504 50 158 0.0 0.0 0.00 0.44 0.00 97 1012.4
20260508090504 50 158 0.0 0.0 0.00 0.44 0.00 96 1012.3
20260508090004 50 158 0.0 0.0 0.00 0.44 0.00 96 1012.3
20260508085504 50 158 0.0 0.0 0.00 0.44 0.00 96 1012.3
20260508085003 51 157 0.0 0.0 0.00 0.44 0.00 97 1012.2
20260508084504 51 158 0.0 0.0 0.00 0.44 0.00 97 1012.1
20260508084003 51 158 0.0 0.0 0.00 0.44 0.00 97 1012.1
20260508083504 51 158 0.0 0.0 0.00 0.44 0.00 96 1012.0
20260508082504 51 146 0.0 0.0 0.00 0.44 0.00 96 1012.1
20260508082003 51 148 0.0 0.0 0.00 0.44 0.00 96 1012.2
20260508081504 51 149 0.0 0.0 0.00 0.44 0.00 96 1012.2
20260508081003 51 145 0.0 0.0 0.00 0.44 0.00 96 1012.0
20260508080503 51 147 0.0 0.0 0.00 0.44 0.00 96 1012.0
20260508075503 51 147 0.0 0.0 0.00 0.44 0.00 96 1012.1
20260508075003 52 149 0.0 0.0 0.00 0.44 0.00 95 1012.1
20260508074504 52 148 0.0 0.0 0.00 0.44 0.00 95 1012.1
20260508074003 52 148 0.0 0.0 0.00 0.44 0.00 95 1012.1
20260508073503 52 150 0.0 0.0 0.00 0.44 0.00 95 1012.0
20260508073004 52 149 0.0 0.0 0.00 0.44 0.00 95 1012.0
20260508072503 52 148 0.0 0.0 0.00 0.44 0.00 95 1012.1
20260508072004 52 148 0.0 0.0 0.00 0.44 0.00 94 1012.1
20260508071503 52 147 0.0 0.0 0.00 0.44 0.00 94 1012.0
20260508071003 52 142 0.0 0.0 0.00 0.44 0.00 94 1011.9
20260508070504 52 144 0.0 0.0 0.00 0.44 0.00 94 1011.9
20260508065503 53 147 0.0 0.0 0.00 0.44 0.00 93 1011.9
20260508065003 53 150 0.0 0.0 0.00 0.44 0.00 93 1011.8
20260508064504 53 150 0.0 0.0 0.00 0.44 0.00 93 1011.7
20260508064003 53 146 0.0 0.0 0.00 0.44 0.00 93 1011.7
20260508063504 53 149 0.0 0.0 0.00 0.44 0.00 92 1011.7
20260508063004 53 147 0.0 0.0 0.00 0.44 0.00 92 1011.7
20260508062504 53 147 0.0 0.0 0.00 0.44 0.00 92 1011.7
20260508062004 53 147 0.0 0.0 0.00 0.44 0.00 92 1011.7
20260508061504 53 150 0.0 0.0 0.00 0.44 0.00 91 1011.7
20260508061004 53 20 0.0 0.0 0.00 0.44 0.00 91 1011.7
20260508060504 54 19 0.0 0.0 0.00 0.44 0.00 91 1011.7
20260508060003 54 20 0.0 0.0 0.00 0.44 0.00 91 1011.9
20260508055504 54 31 0.0 0.0 0.00 0.44 0.00 91 1011.8
20260508055004 54 28 0.0 0.0 0.00 0.44 0.00 90 1011.8
20260508054504 54 29 0.0 0.0 0.00 0.44 0.00 90 1012.1
20260508054004 54 32 0.0 0.0 0.00 0.44 0.00 90 1012.0
20260508053504 54 22 0.0 0.0 0.00 0.44 0.00 89 1012.1
20260508053003 55 14 0.0 0.0 0.00 0.44 0.00 89 1012.0
20260508052504 55 15 0.0 0.0 0.00 0.46 0.00 89 1012.0
20260508052003 55 14 0.0 0.0 0.00 0.49 0.00 89 1011.9
20260508051504 55 13 0.0 0.0 0.00 0.51 0.00 88 1012.0
20260508051004 55 15 0.0 0.0 0.00 0.55 0.00 89 1011.9
20260508050004 56 15 0.0 0.0 0.00 0.61 0.00 87 1011.9
20260508045503 56 17 0.0 0.0 0.00 0.64 0.00 87 1011.9
20260508045003 56 16 0.0 0.0 0.00 0.67 0.00 86 1011.7
20260508044504 56 15 0.0 0.0 0.00 0.69 0.00 85 1011.8
20260508044003 56 13 0.0 0.0 0.00 0.72 0.00 86 1011.8
20260508043503 56 14 0.0 0.0 0.00 0.74 0.00 85 1011.7
20260508043003 56 13 0.0 0.0 0.00 0.77 0.00 84 1011.7
20260508042003 57 15 0.0 0.0 0.00 0.82 0.00 83 1011.6
20260508041004 57 13 0.0 0.0 0.00 0.88 0.00 83 1011.5
20260508040504 57 14 0.0 0.0 0.00 0.91 0.00 82 1011.5
20260508035504 58 13 0.0 0.0 0.00 0.98 0.95 81 1011.4
20260508034504 58 12 0.0 0.0 0.00 1.04 0.95 79 1011.5
20260508034004 59 13 0.0 0.0 0.00 1.04 0.95 78 1011.4
20260508033503 59 13 0.0 0.0 0.00 1.04 0.95 76 1011.5
20260508033003 60 13 0.0 0.0 0.00 1.04 0.95 76 1011.4
20260508031504 61 13 0.0 0.0 0.00 1.05 0.95 70 1011.5
20260508031003 62 12 0.0 0.0 0.00 1.05 0.95 69 1011.4
20260508030504 62 17 0.0 0.0 0.00 1.05 0.95 68 1011.1
20260508030004 62 18 0.0 0.0 0.00 1.05 0.95 68 1011.0
20260508025504 62 17 0.0 0.0 0.00 1.05 0.95 68 1011.1
20260508025004 62 15 0.0 0.0 0.00 1.05 0.95 68 1011.0
20260508024503 63 16 0.0 0.0 0.00 1.06 0.95 67 1011.0
20260508024004 63 8 0.0 0.0 0.00 1.08 0.95 69 1010.9
20260508023503 63 15 0.0 0.9 0.00 1.09 0.95 68 1010.6
20260508023004 63 20 0.0 6.1 0.00 1.09 0.95 64 1010.4
20260508022503 63 23 0.0 0.9 0.00 1.10 0.95 65 1010.2
20260508022004 64 19 0.0 2.6 0.00 1.10 0.95 65 1010.2
20260508021503 64 22 0.9 7.0 0.00 1.10 0.95 66 1010.2
20260508021003 64 21 0.9 2.6 0.00 1.10 0.95 66 1010.2
20260508020503 64 20 0.0 0.9 0.00 1.10 0.95 65 1010.1
20260508020003 64 20 0.0 5.2 0.00 1.11 0.95 64 1010.0
20260508015504 64 20 0.0 5.2 0.00 1.13 0.95 64 1009.9
20260508015003 65 21 0.9 5.2 0.00 1.14 0.95 65 1009.9
20260508014503 65 19 0.0 4.3 0.00 1.15 0.95 64 1009.9
20260508014003 65 18 0.9 6.1 0.00 1.15 0.95 64 1009.7
20260508013504 65 21 0.0 1.7 0.00 1.16 0.95 64 1009.5
20260508013004 65 20 0.9 5.2 0.00 1.17 0.95 64 1009.4